Tracking 18980 objects as of 20-Feb-2018
HD Live streaming from Space Station
objects crossing your sky now

FENGYUN 1C DEB

Track FENGYUN 1C DEB now!
10-day predictions


NORAD ID: 30821
Int'l Code: 1999-025AVF
Perigee: 695.8 km
Apogee: 838.7 km
Inclination: 99.1 °
Period: 100.0 minutes
Semi major axis: 7138 km
RCS: 0.0115 m2 (small)
Launch date: May 10, 1999
Source: People's Republic of China (PRC)
Launch site: Taiyaun Space Center, China (TSC)

Note: This is SATELLITE DEBRIS
aabbcc
Your satellite tracking list
Your tracking list is empty




NASA's NSSDC Master Catalog

Two Line Element Set (TLE):
1 30821U 99025AVF 18050.75107992 +.00000297 +00000-0 +10560-3 0  9996
2 30821 099.0640 328.3660 0100115 345.7624 067.5966 14.39503620576753
Source of the keplerian elements: AFSPC